Member area
Imprimable
Wissant, 08-09/09/2018, FRA - Trail de la Côte d'Opale
List of reports > 42km - Result
Search: Page: [1]
156 Entries
 
Complains are not accepted anymore. Results are final.
PlaceNrLicenceNameAgeNATTeamTimeTkmMoy.ScrCity
1.1026SOARES Orlando44FRALILLE RUNNING TEAM3:58:575:42 10.554
2.1449DESCAMPS Nicolas43FRA4:04:485:50 10.298
3.1242COLLIN Laurent42BELFCHA4:06:305:53 10.2212
4.15421402026DELESTREZ Ludovic45FRACLUB LÉO LAGRANGE ARMENTI4:16:326:07 9.8222
5.1079RICHARD Réginald45FRACLL ARMENTIERES4:17:346:08 9.7824
6.1436VARNEWYCK David46FRAUNIRUN4:19:596:12 9.6928
7.1605GOMERIEUX Eric45FRA4:21:256:14 9.6430
8.1121POIRET Georges44FRA4:22:266:15 9.6031
9.1075BAERT Guillaume43FRA4:25:346:20 9.4936
10.1596DELPLACE Alexandre47FRALONGUENESSE NATURA AVENTU4:29:586:26 9.3341
11.1530DELAMARRE Benoit41FRA4:31:126:28 9.2942
12.11431977191VAN DEN HEEDE Jerome43FRAGRAVITY RUNNING EXPERIENC4:31:416:29 9.2843
13.1398SALINGUE Loic41FRA4:41:336:43 8.9562
14.1395SERVAT Alexandre44FRA4:43:166:45 8.9066
15.1168DURIEZ Arnaud41FRARUNASCQ4:44:206:47 8.8669
16.1306GOMBERT David49FRAJOGGING CLUB LAPUGNOY4:45:276:48 8.8372
17.1093NOCLERCQ Christophe41FRA4:46:366:50 8.7974
18.1063POUESSEL Guillaume44FRA4:47:466:52 8.7677
19.1031DELAPLACE Loïc43FRA4:48:056:52 8.7579
20.1558NAIRI Patrice47FRA4:49:446:54 8.7081
21.1513CHARPENTIER Sebastien41FRA4:51:326:57 8.6486
22.1052RUHL Sven48BEL4:52:476:59 8.6192
23.1142VULSTEKE Kristof47BEL4:53:257:00 8.5996
24.1353ECHEVIN Samuel45FRAECLA LANDAS4:53:297:00 8.5997
25.1174GUMERY Thibaut46FRA4:53:407:00 8.5898
26.1014CHAUSSOY Charles49FRAVÉLO CLUB DES 2 CAPS4:54:577:02 8.54101
27.1038BOURGAIN Guillaume41FRA4:54:587:02 8.54102
28.1040SMEYERS Michael44BEL4:56:257:04 8.50103
29.14401071140DEHAUDT David40FRAAC CAMBRAI4:56:417:04 8.49104
30.1397DEPRET Frederic44FRA4:57:057:05 8.48106
31.1158CORNU Anthony41FRA4:57:207:05 8.48108
32.1260GAYET Stephane44FRAXTREM CHALLENGE4:58:057:06 8.45109
33.1097BONDT Xavier47FRA4:58:157:07 8.45110
34.1369VIGNERON Nicolas48FRACS BETTON5:01:407:11 8.35118
35.1561MORTIER Cedric41FRA5:01:567:12 8.35119
36.11191680299BORDAIS Francois44FRACACAHUÈTES5:02:107:12 8.34120
37.1269GOETHALS Christophe49FRA5:05:097:16 8.26128
38.1169FASSOTTE Raphaël44BELTEAM DES FOUS!!5:06:227:18 8.23132
39.1222COUSTY Franck44FRASEVELNORD5:06:407:19 8.22133
40.1569VERNAILLEN Frank46BEL5:06:527:19 8.21135
41.1465LAZARO Pedro46ESPRUN ST HONORÉ5:07:097:19 8.20140
42.1043BAUDY Jerome44FRA5:07:107:19 8.20141
43.1262COPPENS Peter44BEL5:09:107:22 8.15144
44.1482BARTHE Gilles46FRA5:11:017:25 8.10149
45.1130DURIEZ Olivier44FRABAC5:11:257:25 8.09152
46.1430BULLIER Emmanuel43FRA5:11:497:26 8.08156
47.1296LABALETTE Ludovic45FRACSLG CAUDRY5:13:597:29 8.03163
48.1570ANNE Ludovic48FRA5:15:317:31 7.99169
49.1451COUROUBLE Guy-Bernard41FRA5:15:447:32 7.98173
50.1041ROSSEL Yann45FRA5:16:017:32 7.97175
51.1199BRINGUETZ Michel48FRALES FURETS CAUCHOIS5:17:117:34 7.95179
52.1554LABOUSSOLE Olivier43FRAKALENJI TEAM5:17:447:34 7.93181
53.1258KHELOUI Steve40FRA5:19:457:37 7.88184
54.1099LEZY Bart40BELAVR5:19:507:37 7.88185
55.10351483082LOSFELD Aymeric45FRAUS MARQUETTE5:20:027:38 7.87186
56.1191GAILLET Christophe44BELTEMPLEUVE5:20:257:38 7.87190
57.1502LABOUREUR Ludovic44FRA5:20:367:38 7.86192
58.1555TALPAERT Anthony40FRA5:21:267:40 7.84196
59.1317TIESSET Arnaud45FRA5:22:087:41 7.82197
60.1518A57982C0190129MV1FRALEBLANC Patrick44FRATCB5:23:237:42 7.79203
61.1188MASTIN Pascal45FRA5:23:467:43 7.78206
62.1566DELOBEL Sébastien46FRA5:24:407:44 7.76209
63.1489VAN DE KERKHOVE Robert45NÉE5:24:497:45 7.76211
64.1047NIEUWLAND Jean-Francois42BELCHAPELIERS FOUS5:25:137:45 7.75212
65.1375COURARD Fabian47BELRCASPA5:25:267:45 7.74215
66.1305KINET Olivier47BEL5:28:057:49 7.68220
67.1328WAROUX Pascal43FRA5:28:437:50 7.67222
68.1066DEROUSSEAU Gregory47FRA5:28:457:50 7.67223
69.1314COULLEIT Jean-Christophe42FRA5:29:057:51 7.66224
70.1287HUGUENIN Jean Remi43FRA5:29:427:51 7.64228
71.1146DUCROCQ Stephane45FRAWIMRUN5:29:467:52 7.64229
72.1344BUTIN Vianney48FRA5:31:427:54 7.60236
73.1090RENAUT Maxime45FRA5:32:207:55 7.58240
74.1468KLÉPAL Hervé47FRATHEALTRAMAN5:33:417:57 7.55243
75.1072MEUROT Manuel44FRA5:34:397:59 7.53244
76.1581CAMPOS Nicolas48FRA5:35:288:00 7.51246
77.1117VITSE Michael49FRA5:35:418:00 7.51247
78.1301GARCIA Daniel48FRA5:36:358:01 7.49250
79.1061DUMONT Stéphane43FRA5:37:478:03 7.46251
80.1118GOOSSENS Benoit42BEL5:38:518:05 7.44254
81.1225RICHARD Vincent44FRA5:39:348:06 7.42257
82.1401123025DUCHOSSOY Eric42FRAGRAVITY RUNNING5:39:418:06 7.42259
83.1027BÉCARD Ezechiel47FRA5:39:508:06 7.42260
84.1444BITOT Frederic40FRA5:39:548:06 7.41261
85.1152PERVEUX Olivier40BELLA FORESTIÈRE5:40:178:07 7.41263
86.1189LESPRIT Raphaël44FRA5:42:318:10 7.36275
87.1389CLIQUÉ Manuel40FRAWORLDLINE5:42:448:10 7.35278
88.1116COLLIE Fabian44FRAXTRATIME RUNNING5:42:598:10 7.35279
89.1432WEPPE Ludovic40FRA5:43:458:12 7.33281
90.1509GRZEGORZEWSKI Ludovic44FRA5:45:308:14 7.29287
91.1020DELEGLISE Marc40FRA5:45:318:14 7.29288
92.1386LAMBLIN Jean Marc43FRABERCK OPALE SUD TRIATHLON5:45:548:15 7.29290
93.1312BOURLES Laurent45FRA5:47:338:17 7.25295
94.1483EMMANUEL Lepretre42FRA5:47:338:17 7.25297
95.14021929039FREMON Christophe43FRACHRISTOPHE5:47:438:17 7.25298
96.1219NEMEGHAIRE Laurent47BELLES ECLATÉS PÉRUWELZIENS5:48:068:18 7.24302
97.1183SARASIN Michaël47FRAJOGGING CLUB DE LAPUGNOY5:48:478:19 7.23307
98.1162TROUILLE Gaetan43FRA5:51:068:22 7.18316
99.1302BRABANT Gregory41FRA5:52:488:24 7.14319
100.1359LESNES Renaud47FRA5:53:448:26 7.12324
101.1593JELONEK Jean-Luc49FRA5:53:468:26 7.12325
102.1319GRONENCHELD Eric49FRA5:54:508:27 7.10327
103.1128BOYAVAL Pascal49FRAJCL5:55:318:28 7.09329
104.1577VERDUYN Yvan45BEL5:56:018:29 7.08331
105.1132GUÉRIN Jean-Christophe45BEL5:56:068:29 7.08332
106.1251A07492C0190113MV1FRAWATTEZ David44FRABATARD5:59:338:34 7.01345
107.1285JOMBART Jerome47FRA5:59:348:34 7.01346
108.1125PIERON Vincent48BELLES ÉCLATÉS PÉRUWELZIENS5:59:518:35 7.00348
109.1399COLETTA Michel42FRA6:00:088:35 7.00350
110.1374VERHAEGHE Samuel43FRA6:00:288:35 6.99352
111.1108HOTAT Michel49FRAJAMES6:01:488:37 6.97357
112.1252BUSEINE Lionel43FRA6:03:478:40 6.93362
113.1540DELIENCOURT Laurent43FRA6:04:468:42 6.91363
114.1123LOUCHART Vincent47FRALES COUREURS DU LOUP BLAN6:05:038:42 6.90366
115.1533CORDIER Guillaume45FRA6:07:108:45 6.86374
116.1324WINTACQ Benoit43BELSURICATES6:12:068:52 6.77380
117.1429LEBRAT Julien44FRAPÉTOTES6:13:088:54 6.75388
118.1431JANSSENS Geoffroy45BEL6:13:098:54 6.75389
119.15221460690HOUZE Fabrice44FRAHEM ATHLETIC6:15:488:57 6.71395
120.1527FEUR Olivier47FRA6:15:558:58 6.70396
121.1295BAUDE Philippe46FRA6:16:058:58 6.70398
122.1004VERIN David42FRA6:16:208:58 6.70399
123.1478OVION Sylvestre48FRAAC CAPELLOIS6:16:568:59 6.69400
124.1355LANGLOIS Frédéric49FRAAC CAPELLOIS6:16:588:59 6.68401
125.1288PORICHE Frederic49FRA6:19:269:03 6.64404
126.1091DECLERCQ Yannick44BEL100 AMIS DE BLÉHARIES6:20:379:04 6.62405
127.1083LEROY Rudy40FRA6:20:599:05 6.61406
128.1106LEFEVRE Eric45FRAJOGGING CLUB LAPUGNOY6:24:079:09 6.56413
129.1223CHERUBIN Philippe48FRACOT TRITH ATHLETISME6:24:229:10 6.56416
130.1054RUCART Claude41FRA6:25:509:12 6.53417
131.1411BLOT Emmanuel46FRA6:26:439:13 6.52419
132.1250GONIN Thomas44FRABATARD6:28:099:15 6.49420
133.1180HENE Olivier46BEL6:29:279:17 6.47423
134.1139IKHADRIOUENE Farid41FRA6:30:049:18 6.46427
135.1264HENNON Vincent45FRA6:32:529:22 6.41430
136.1073NIEUWLAND Nicolas45BELSPORT EVASION6:35:509:26 6.37432
137.1098BOTTE Christophe46FRAX TERRILS RIEULAY6:37:309:28 6.34435
138.1184VERBEECK Tom44BEL6:37:439:29 6.34436
139.1525DESAIR Kristof45BEL6:39:089:31 6.31438
140.1214HENNINOT Xavier49FRATEAM OFF COURSE6:51:379:49 6.12453
141.1209TILLIE Oliver41BELDUNEKEUNTJES6:55:239:54 6.07456
142.1263ESSENBERG Marco41NÉEFORTIUS6:57:149:57 6.04458
143.1003VERBRUGGHE Vincent46FRA6:57:439:57 6.03459
144.1357GAMAY Jean-Bernard49FRA7:06:3510:10 5.91466
145.1259POIRIEZ Jerome42FRALES FURETS CAUCHOIS7:08:2310:12 5.88468
146.1104DETOURNAY François40FRA7:20:1310:29 5.72474
147.1220GROSSEMY Julien40FRA7:28:3110:41 5.62479
148.1433MOUALEK Abdelhafid40FRAH2 FAMILY7:58:0511:23 5.27480
149.1408LEDOUX Nicolas45FRA7:58:0611:23 5.27481
DNF1448BAILLY Alban44FRA
DNF1170COULAUD Jean-Yves49FRA
DNF1584DA SILVA Lionel46FRADOMONT ATHLETISME
DNF1226DILIBERTO Manu40FRA
DNF1354DUJARDIN Bruno45FRA
DNF1493GOLLIOT Didier49FRA
DNF1155RIDOUX Bruno47FRA
DNF: did not finish; DSQ: disqualified; Speed in km/h
Page: [1]